User: anonymous   Login
Location: Christchurch
(43.5330°S, 172.6330°E)
Time: 20:35:50
(UTC+13:00)
Language:

Intelsat 806 - Orbit

View from above orbital plane
View from above orbital plane
View from above satellite
View from above satellite

Ground track
Ground track

The orbit data is extracted from the following two-line orbital elements,

1 25239U 98014A   19287.85764272 -.00000265 +00000-0 +00000-0 0  9995
2 25239 000.9906 098.6178 0003953 078.8297 285.9861 00.99080369022824
Epoch (UTC): 14 October 2019 20:35:00
Eccentricity: 0.0003953
inclination: 0.9906°
perigee height: 36107 km
apogee height: 36140 km
right ascension of ascending node: 98.6178°
argument of perigee: 78.8297°
revolutions per day: 0.99080369
mean anomaly at epoch: 285.9861°
orbit number at epoch: 2282

The dashed part of the orbit path shows where the satellite is in the earth's shadow,  

DLR